This is the latest recevied weather packets stored in our database for station/object K6TTR. If no packets are shown the sender has not sent any weather packets the latest 1 day(s).
| Time | Temp. | Humidity | Pressure | Rain* | Wind** | Luminosity | Snow |
|---|---|---|---|---|---|---|---|
| 1778044726 | 10° C | 81% | 1016.9 hPa | 0 mm | 0 m/s | 0 W/m² | - |
| 1778044431 | 10° C | 81% | 1016.7 hPa | 0 mm | 1.34 m/s, 285° | 0 W/m² | - |
| 1778044116 | 10.56° C | 79% | 1016.7 hPa | 0 mm | 0 m/s | 0 W/m² | - |
| 1778043822 | 10.56° C | 79% | 1016.6 hPa | 0 mm | 0 m/s | 0 W/m² | - |
| 1778043523 | 10.56° C | 79% | 1016.5 hPa | 0 mm | 0.45 m/s, 285° | 0 W/m² | - |
| 1778043229 | 10.56° C | 78% | 1016.5 hPa | 0 mm | 0 m/s | 0 W/m² | - |
| 1778042914 | 11.11° C | 77% | 1016.4 hPa | 0 mm | 0 m/s | 0 W/m² | - |
| 1778042619 | 11.11° C | 76% | 1016.4 hPa | 0 mm | 0.89 m/s, 285° | 0 W/m² | - |
| 1778042325 | 11.11° C | 75% | 1016.1 hPa | 0 mm | 1.79 m/s, 281° | 0 W/m² | - |
| 1778042030 | 11.67° C | 74% | 1016.1 hPa | 0 mm | 1.34 m/s, 309° | 0 W/m² | - |
| 1778041714 | 11.67° C | 73% | 1015.9 hPa | 0 mm | 0 m/s | 0 W/m² | - |
| 1778041419 | 11.67° C | 73% | 1015.8 hPa | 0 mm | 0 m/s | 0 W/m² | - |
| 1778041125 | 12.22° C | 73% | 1015.8 hPa | 0 mm | 0.45 m/s, 317° | 0 W/m² | - |
| 1778040831 | 12.22° C | 73% | 1015.7 hPa | 0 mm | 0.89 m/s, 317° | 0 W/m² | - |
| 1778040516 | 12.22° C | 72% | 1015.7 hPa | 0 mm | 0 m/s | 0 W/m² | - |
| 1778040222 | 12.78° C | 72% | 1015.5 hPa | 0 mm | 0 m/s | 0 W/m² | - |
| 1778039928 | 12.78° C | 71% | 1015.5 hPa | 0 mm | 0 m/s | 0 W/m² | - |
| 1778039611 | 12.78° C | 71% | 1015.3 hPa | 0 mm | 0 m/s | 0 W/m² | - |
| 1778039318 | 13.33° C | 70% | 1015.2 hPa | 0 mm | 0 m/s | 0 W/m² | - |
| 1778039022 | 13.33° C | 70% | 1015.1 hPa | 0 mm | 0 m/s | 0 W/m² | - |
| 1778038728 | 13.89° C | 69% | 1015 hPa | 0 mm | 0 m/s | 0 W/m² | - |
| 1778038414 | 13.89° C | 69% | 1014.8 hPa | 0 mm | 0 m/s | 0 W/m² | - |
| 1778038121 | 14.44° C | 67% | 1014.7 hPa | 0 mm | 0.45 m/s, 317° | 0 W/m² | - |
| 1778037825 | 15° C | 66% | 1014.7 hPa | 0 mm | 0 m/s | 0 W/m² | - |
| 1778037512 | 15° C | 65% | 1014.7 hPa | 0 mm | 0 m/s | 0 W/m² | - |
* Rain latest hour (hover to see other rain measurements)
** Current wind speed in m/s (hover to see current wind gust speed)